Station NFDF1 - 8720215 - Navy Fuel Depot, St Johns River, FL Image indicating link to RSS feed of recent meteorological observations for station NFDF1


Conditions at NFDF1 as of
(1:00 pm EDT)
1700 GMT on 04/18/2024:
     

Click on the graph icon in the table below to see a time series plot of the last five days of that observation.

5-day plot - Wind Direction Wind Direction (WDIR):SSE ( 160 deg true )
5-day plot - Wind Speed Wind Speed (WSPD): 4.1 kts
5-day plot - Wind Gust Wind Gust (GST): 5.1 kts
5-day plot - Atmospheric Pressure Atmospheric Pressure (PRES):30.09 in
5-day plot - Pressure Tendency Pressure Tendency (PTDY):-0.03 in ( Falling )
5-day plot - Air Temperature Air Temperature (ATMP): 80.2 °F
5-day plot - Dew Point Dew Point (DEWP): 65.1 °F
5-day plot - Visibility Visibility (VIS): 5.9 nmi
5-day plot - Heat Index Heat Index (HEAT): 82.0 °F
5-day plot - Wind Speed at 10 Meters Wind Speed at 10 meters (WSPD10M): 3.9 kts
5-day plot - Wind Speed at 20 Meters Wind Speed at 20 meters (WSPD20M): 3.9 kts
5-day plot -  Wind Speed, Wind Gust and Atmospheric Pressure Combined plot of Wind Speed, Gust, and Air Pressure
NOS Water Level Observation Network Water Level
Previous observations
TIME
(EDT)
5-day plot - Wind Direction
WDIR
 
5-day plot - Wind Speed
WSPD
kts
5-day plot - Wind Gust
GST
kts
5-day plot - Wave Height
WVHT
ft
5-day plot - Dominant Wave Period
DPD
sec
5-day plot - Average Wave Period
APD
sec
5-day plot - Mean Wave Direction
MWD
 
5-day plot - Atmospheric Pressure
PRES
in
5-day plot - Pressure Tendency
PTDY
in
5-day plot - Air Temperature
ATMP
°F
5-day plot - Water Temperature
WTMP
°F
5-day plot - Dew Point
DEWP
°F
5-day plot - Salinity
SAL
psu
5-day plot - Visibility
VIS
nmi
5-day plot - Tide (above MLLW)
TIDE
ft
2024-04-18 12:54 pm E 2.9 4.1----30.09- 80.2- 64.6- 5.9-
2024-04-18 12:48 pm E 2.9 4.1----30.09- 80.1- 65.5- 5.9-
2024-04-18 12:42 pm S 1.9 5.1----30.09- 82.0- 64.9- 5.9-
2024-04-18 12:36 pm S 2.9 5.1----30.09- 81.3- 64.0- 5.9-
2024-04-18 12:30 pm S 4.1 4.1----30.10- 81.0- 63.9- 5.9-
2024-04-18 12:24 pm- 0.0 2.9----30.10- 81.5- 64.8- 5.9-
2024-04-18 12:18 pm S 1.0 1.9----30.10- 81.5- 63.5- 5.9-
2024-04-18 12:12 pm S 1.9 4.1----30.10- 81.3- 64.6- 5.9-
2024-04-18 12:06 pm W 4.1 6.0----30.10- 82.2- 63.7- 5.9-
2024-04-18 12:00 pm SW 2.9 4.1----30.10-0.01 81.1- 64.9- 5.9-
2024-04-18 11:54 amSSW 4.1 5.1----30.10- 80.6- 65.3- 5.9-
2024-04-18 11:48 amSSW 4.1 6.0----30.11- 80.2- 64.8- 5.9-
2024-04-18 11:42 am SW 5.1 8.0----30.11- 79.7- 64.2- 5.9-
2024-04-18 11:36 amSSW 2.9 6.0----30.11- 79.7- 64.6- 5.9-
2024-04-18 11:30 amSSW 1.9 4.1----30.11- 79.3- 64.8- 5.9-
2024-04-18 11:24 am S 4.1 4.1----30.11- 78.3- 66.4- 5.9-
2024-04-18 11:18 amSSW 2.9 4.1----30.11- 78.3- 66.4- 5.9-
2024-04-18 11:12 am SW 2.9 7.0----30.11- 79.2- 67.3- 5.9-
2024-04-18 11:06 amWSW 4.1 6.0----30.11- 79.2- 65.8- 5.9-
2024-04-18 11:00 amWSW 2.9 7.0----30.11+0.00 78.3- 67.8- 5.9-
2024-04-18 10:54 am SW 5.1 7.0----30.11- 77.2- 69.1- 5.9-
2024-04-18 10:48 am S 1.9 2.9---------- 5.9-
2024-04-18 10:42 amSSW 1.9 2.9---------- 5.9-
2024-04-18 10:36 amSSW 2.9 4.1---------- 5.9-
2024-04-18 10:30 amSSW 1.9 2.9----30.12- 76.8- 73.8- 5.9-
2024-04-18 10:24 amSSW 2.9 4.1----30.11- 76.5- 73.4- 5.9-
2024-04-18 10:18 am W 1.9 5.1----30.11- 77.0- 75.6- 5.9-
2024-04-18 10:12 am SW 2.9 6.0----30.11- 76.3- 76.3- 5.9-
2024-04-18 10:06 am SW 4.1 6.0----30.11- 75.6- 75.6- 5.9-
2024-04-18 10:00 am SW 5.1 7.0----30.11+0.02 74.8- 74.8- 5.9-
2024-04-18 09:54 am SW 4.1 5.1----30.11- 75.0- 75.0- 5.9-
2024-04-18 09:48 am SW 5.1 7.0----30.11- 74.1- 74.1- 5.9-
2024-04-18 09:42 amWSW 2.9 6.0----30.11- 74.7- 74.7- 5.9-
2024-04-18 09:36 am SW 5.1 7.0----30.11- 74.1- 74.1- 5.9-
2024-04-18 09:30 am SW 5.1 7.0----30.11- 73.2- 73.2- 5.9-
2024-04-18 09:24 am SW 5.1 6.0----30.11- 72.9- 72.9- 5.9-
2024-04-18 09:18 am SW 5.1 6.0----30.11- 72.7- 72.7- 5.9-
2024-04-18 09:12 amWSW 4.1 5.1----30.11- 72.7- 72.7- 5.9-
2024-04-18 09:06 am SW 5.1 7.0----30.11- 71.8- 71.6- 5.9-
2024-04-18 09:00 am SW 5.1 7.0----30.11+0.04 71.8- 71.6- 5.9-
2024-04-18 08:54 am SW 7.0 8.0----30.11- 71.6- 71.4- 5.9-
2024-04-18 08:48 am SW 7.0 8.9----30.11- 71.4- 71.2- 5.9-
2024-04-18 08:42 amSSW 6.0 8.0----30.11- 71.4- 71.2- 5.9-
2024-04-18 08:36 am SW 7.0 8.9----30.11- 71.4- 71.2- 5.9-
2024-04-18 08:30 am SW 8.0 9.9----30.11- 71.4- 71.2- 5.9-
2024-04-18 08:24 am SW 8.0 9.9----30.11- 71.2- 71.1- 5.9-
2024-04-18 08:18 am SW 7.0 8.9----30.11- 71.4- 71.2- 5.9-
2024-04-18 08:12 am SW 6.0 8.0----30.11- 71.2- 71.1- 5.9-
2024-04-18 08:06 am SW 5.1 7.0----30.11- 71.2- 71.1- 5.9-
2024-04-18 08:00 amWSW 5.1 6.0----30.11+0.06 71.1- 70.9- 5.9-
2024-04-18 07:54 amWSW 4.1 7.0----30.11- 70.9- 70.7- 5.9-
2024-04-18 07:48 am SW 4.1 7.0----30.11- 70.9- 70.7- 5.9-
2024-04-18 07:42 am SW 2.9 5.1----30.11- 70.3- 70.2- 5.9-
2024-04-18 07:36 am SW 1.9 1.9----30.10- 69.4- 69.3- 5.9-
2024-04-18 07:30 am W 1.0 1.9----30.11- 69.3- 69.1- 5.9-
2024-04-18 07:24 am W 1.0 1.9----30.10- 69.4- 69.3- 5.9-
2024-04-18 07:18 am- 0.0 1.9----30.10- 69.6- 69.4- 5.9-
2024-04-18 07:12 amWSW 1.0 2.9----30.09- 70.0- 69.8- 5.9-
2024-04-18 07:06 amSSW 2.9 4.1----30.09- 70.5- 70.3- 5.9-
2024-04-18 07:00 am SW 2.9 2.9----30.09+0.03 70.5- 70.3- 5.9-
2024-04-18 06:54 amSSW 2.9 4.1----30.09- 70.3- 70.2- 5.9-
2024-04-18 06:48 amWSW 1.9 4.1----30.09- 70.5- 70.3- 5.9-
2024-04-18 06:42 am SW 4.1 5.1----30.09- 70.5- 70.3- 5.9-
2024-04-18 06:36 am SW 2.9 5.1----30.08- 70.5- 70.3- 5.9-
2024-04-18 06:30 am SW 4.1 4.1----30.08- 70.7- 70.5- 5.9-
2024-04-18 06:24 amSSW 2.9 5.1----30.08- 70.7- 70.5- 5.9-
2024-04-18 06:18 amSSW 4.1 5.1----30.07- 70.7- 70.5- 5.9-
2024-04-18 06:12 am S 4.1 6.0----30.07- 70.7- 70.5- 5.9-
2024-04-18 06:06 amSSW 4.1 5.1----30.07- 70.7- 70.5- 5.9-
2024-04-18 06:00 amSSW 4.1 5.1----30.06-0.01 70.7- 70.5- 5.9-
2024-04-18 05:54 amSSW 4.1 5.1----30.06- 70.5- 70.3- 5.9-
2024-04-18 05:48 amSSW 4.1 5.1----30.06- 70.7- 70.7- 5.9-
2024-04-18 05:42 amSSW 4.1 5.1----30.06- 70.9- 70.7- 5.9-
2024-04-18 05:36 amSSW 4.1 5.1----30.06- 70.7- 70.7- 5.9-
2024-04-18 05:30 amSSW 4.1 6.0----30.06- 70.7- 70.7- 5.9-
2024-04-18 05:24 amSSW 5.1 7.0----30.06- 70.9- 70.7- 5.9-
2024-04-18 05:18 amSSW 5.1 5.1----30.06- 70.9- 70.9- 5.9-
2024-04-18 05:12 amSSW 5.1 6.0----30.05- 70.9- 70.9- 5.9-
2024-04-18 05:06 amSSW 2.9 6.0----30.05- 70.9- 70.7- 5.9-
2024-04-18 05:00 am S 4.1 6.0----30.05-0.04 70.9- 70.7- 5.9-
2024-04-18 04:54 am S 4.1 6.0----30.04- 71.1- 71.1- 5.9-
2024-04-18 04:48 am S 5.1 7.0----30.05- 71.2- 71.2- 5.9-
2024-04-18 04:42 am S 6.0 8.0----30.05- 71.2- 71.2- 5.9-
2024-04-18 04:36 amSSW 4.1 6.0----30.05- 71.4- 71.4- 5.9-
2024-04-18 04:30 amSSW 4.1 6.0----30.05- 71.1- 71.1- 5.9-
2024-04-18 04:24 am S 4.1 5.1----30.05- 71.2- 71.1- 5.9-
2024-04-18 04:18 amSSW 2.9 5.1----30.06- 71.1- 70.9- 5.9-
2024-04-18 04:12 am S 4.1 5.1----30.06- 71.1- 70.9- 5.9-
2024-04-18 04:06 am S 2.9 5.1----30.06- 71.1- 71.1- 5.9-
2024-04-18 04:00 am S 4.1 6.0----30.06-0.04 71.1- 70.9- 5.9-
2024-04-18 03:54 amSSW 2.9 5.1----30.06- 71.1- 71.1- 5.9-
2024-04-18 03:48 am S 2.9 5.1----30.06- 71.1- 71.1- 5.9-
2024-04-18 03:42 am S 2.9 6.0----30.06- 71.1- 71.1- 5.9-
2024-04-18 03:36 am S 5.1 7.0----30.05- 71.4- 71.4- 5.9-
2024-04-18 03:30 amSSW 5.1 7.0----30.05- 71.4- 71.4- 5.9-
2024-04-18 03:24 am S 6.0 8.0----30.06- 71.2- 71.2- 5.9-
2024-04-18 03:18 am S 7.0 8.0----30.06- 71.2- 71.2- 5.9-
2024-04-18 03:12 amSSW 5.1 7.0----30.06- 71.4- 71.4- 5.9-
2024-04-18 03:06 amSSW 4.1 6.0----30.07- 71.4- 71.4- 5.9-
2024-04-18 03:00 amSSW 5.1 7.0----30.07-0.04 71.4- 71.4- 5.9-
2024-04-18 02:54 amSSW 5.1 7.0----30.08- 71.4- 71.4- 5.9-
2024-04-18 02:48 amSSW 6.0 7.0----30.08- 71.6- 71.6- 5.9-
2024-04-18 02:42 amSSW 6.0 7.0----30.08- 71.4- 71.4- 5.9-
2024-04-18 02:36 amSSW 5.1 8.0----30.08- 71.6- 71.6- 5.9-
2024-04-18 02:30 amSSW 6.0 8.0----30.09- 71.8- 71.8- 5.9-
2024-04-18 02:24 amSSW 5.1 7.0----30.09- 71.8- 71.8- 5.9-
2024-04-18 02:18 amSSW 7.0 8.9----30.09- 71.8- 71.8- 5.9-
2024-04-18 02:12 amSSW 6.0 8.0----30.09- 71.8- 71.8- 5.9-
2024-04-18 02:06 amSSW 4.1 7.0----30.09- 72.0- 72.0- 5.9-
2024-04-18 02:00 amSSW 5.1 7.0----30.09-0.02 72.0- 72.0- 5.9-
2024-04-18 01:54 amSSW 6.0 8.0----30.09- 71.8- 71.8- 5.9-
2024-04-18 01:48 amSSW 5.1 8.0----30.09- 72.0- 72.0- 5.9-
2024-04-18 01:42 amSSW 5.1 8.9----30.09- 72.0- 72.0- 5.9-
2024-04-18 01:36 amSSW 6.0 8.9----30.09- 72.0- 72.0- 5.9-
2024-04-18 01:30 amSSW 7.0 8.9----30.09- 72.0- 72.0- 5.9-
2024-04-18 01:24 amSSW 5.1 7.0----30.09- 72.0- 72.0- 5.9-
2024-04-18 01:18 am S 5.1 8.0----30.09- 72.0- 72.0- 5.9-
2024-04-18 01:12 am S 5.1 8.9----30.09- 72.0- 72.0- 5.9-
2024-04-18 01:06 am S 6.0 9.9----30.09- 72.0- 72.0- 5.9-
2024-04-18 01:00 am S 5.1 9.9----30.10-0.02 72.1- 72.1- 5.9-
2024-04-18 12:54 am S 5.1 9.9----30.10- 72.1- 72.1- 5.9-
2024-04-18 12:48 am S 6.0 8.0----30.10- 72.1- 72.1- 5.9-
2024-04-18 12:42 am S 7.0 8.9----30.10- 72.1- 72.1- 5.9-
2024-04-18 12:36 amSSW 6.0 8.9----30.11- 72.3- 72.3- 5.9-
2024-04-18 12:30 amSSW 6.0 8.9----30.11- 72.5- 72.5- 5.9-
2024-04-18 12:24 am SW 7.0 8.9----30.11- 72.3- 72.3- 5.9-
2024-04-18 12:18 amSSW 7.0 8.9----30.11- 72.5- 72.5- 5.9-
2024-04-18 12:12 amSSW 7.0 8.9----30.11- 72.3- 72.3- 5.9-
2024-04-18 12:06 amSSW 6.0 11.1----30.11- 72.5- 72.5- 5.9-
2024-04-18 12:00 am SW 8.9 12.0----30.11+0.01 72.5- 72.5- 5.9-
2024-04-17 11:54 pmWSW 5.1 8.0----30.11- 72.5- 72.5- 5.9-
2024-04-17 11:48 pmSSW 5.1 8.9----30.11- 72.5- 72.5- 5.9-
2024-04-17 11:42 pmSSW 4.1 6.0----30.12- 72.3- 72.3- 5.9-
2024-04-17 11:36 pm S 2.9 6.0----30.11- 72.3- 72.3- 5.9-
2024-04-17 11:30 pm S 4.1 6.0----30.11- 72.3- 72.3- 5.9-
2024-04-17 11:24 pm S 4.1 5.1----30.11- 72.3- 72.3- 5.9-
2024-04-17 11:18 pm S 4.1 5.1----30.11- 72.3- 72.3- 5.9-
2024-04-17 11:12 pm S 2.9 6.0----30.11- 72.3- 72.3- 5.9-
2024-04-17 11:06 pm SE 2.9 7.0----30.11- 72.3- 72.3- 5.9-
2024-04-17 11:00 pmSSE 5.1 6.0----30.11+0.02 72.3- 72.3- 5.9-
2024-04-17 10:54 pmSSE 4.1 7.0----30.11- 72.3- 72.3- 5.9-
2024-04-17 10:48 pmSSE 5.1 7.0----30.11- 72.3- 72.3- 5.9-
2024-04-17 10:42 pm SE 5.1 6.0----30.11- 72.3- 72.3- 5.9-
2024-04-17 10:36 pmSSE 2.9 5.1----30.11- 72.3- 72.3- 5.9-
2024-04-17 10:30 pm SE 4.1 5.1----30.11- 72.3- 72.3- 5.9-
2024-04-17 10:24 pm S 2.9 5.1----30.12- 72.5- 72.5- 5.9-
2024-04-17 10:18 pmSSE 4.1 6.0----30.12- 72.3- 72.3- 5.9-
2024-04-17 10:12 pm SE 4.1 5.1----30.12- 72.3- 72.3- 5.9-
2024-04-17 10:06 pm SE 2.9 5.1----30.12- 72.3- 72.3- 5.9-
2024-04-17 10:00 pmSSE 2.9 4.1----30.12+0.05 72.3- 72.3- 5.9-
2024-04-17 09:54 pm SE 4.1 5.1----30.12- 72.3- 72.3- 5.9-
2024-04-17 09:48 pm SE 2.9 5.1----30.12- 72.5- 72.5- 5.9-
2024-04-17 09:42 pm SE 4.1 5.1----30.11- 72.5- 72.5- 5.9-
2024-04-17 09:36 pm SE 5.1 7.0----30.11- 72.7- 72.7- 5.9-
2024-04-17 09:30 pmSSE 6.0 8.0----30.11- 72.7- 72.7- 5.9-
2024-04-17 09:24 pmSSE 5.1 7.0----30.11- 72.9- 72.9- 5.9-
2024-04-17 09:18 pmSSE 4.1 7.0----30.11- 73.0- 73.0- 5.9-
2024-04-17 09:12 pmSSE 5.1 6.0----30.11- 73.0- 72.7- 5.9-
2024-04-17 09:06 pmSSE 4.1 6.0----30.11- 73.2- 73.0- 5.9-
2024-04-17 09:00 pm S 2.9 5.1----30.11+0.04 73.2- 72.7- 5.9-
2024-04-17 08:54 pmSSE 2.9 7.0----30.11- 73.4- 73.0- 5.9-
2024-04-17 08:48 pm SE 5.1 8.0----30.11- 73.6- 72.3- 5.9-
2024-04-17 08:42 pm SE 5.1 8.0----30.10- 73.6- 72.7- 5.9-
2024-04-17 08:36 pm SE 6.0 8.9----30.10- 73.8- 72.7- 5.9-
2024-04-17 08:30 pm SE 7.0 11.1----30.10- 73.9- 72.3- 5.9-
2024-04-17 08:24 pm SE 8.0 9.9----30.10- 74.3- 72.0- 5.9-
2024-04-17 08:18 pm SE 6.0 8.9----30.09- 74.7- 72.5- 5.9-
2024-04-17 08:12 pmESE 6.0 8.0----30.09- 74.8- 74.1- 5.9-
2024-04-17 08:06 pmESE 7.0 8.0----30.09- 75.0- 72.3- 5.9-
2024-04-17 08:00 pmESE 7.0 8.9----30.09+0.01 75.4- 72.5- 5.9-
2024-04-17 07:54 pmESE 7.0 8.0----30.08- 75.7- 72.0- 5.9-
2024-04-17 07:48 pmESE 7.0 8.0----30.08- 75.9- 71.8- 5.9-
2024-04-17 07:42 pmESE 6.0 8.0----30.08- 75.9- 71.8- 5.9-
2024-04-17 07:36 pm E 7.0 8.0----30.08- 75.9- 73.6- 5.9-
2024-04-17 07:30 pmESE 5.1 7.0----30.08- 76.5- 73.2- 5.9-
2024-04-17 07:24 pm E 6.0 8.9----30.08- 76.6- 71.8- 5.9-
2024-04-17 07:00 pmESE 7.0 9.9----30.07-0.01 77.9- 68.9- 5.9-
2024-04-17 06:54 pmESE 8.0 11.1----30.07- 77.9- 69.1- 5.9-
2024-04-17 06:48 pmESE 8.0 11.1----30.07- 78.3- 69.1- 5.9-
2024-04-17 06:42 pmESE 8.9 11.1----30.07- 78.3- 68.5- 5.9-
2024-04-17 06:36 pmESE 9.9 12.0----30.07- 78.1- 68.9- 5.9-
2024-04-17 06:30 pm E 8.9 9.9----30.07- 77.9- 70.9- 5.9-
2024-04-17 06:24 pm SE 6.0 9.9----30.07- 78.8- 69.6- 5.9-
2024-04-17 06:18 pmESE 9.9 13.0----30.07- 77.9- 70.9- 5.9-
2024-04-17 06:12 pmESE 12.0 14.0----30.07- 77.7- 69.3- 5.9-
2024-04-17 06:06 pmESE 12.0 14.0----30.07- 77.9- 70.5- 5.9-
2024-04-17 06:00 pmESE 11.1 13.0----30.07-0.03---- 5.9-
2024-04-17 05:54 pmESE 12.0 13.0----30.07----- 5.9-
2024-04-17 05:48 pmESE 8.9 12.0----30.07- 78.4- 71.4- 5.9-
2024-04-17 05:42 pmESE 11.1 14.0----30.07- 78.4- 70.3- 5.9-
2024-04-17 05:36 pm E 9.9 12.0----30.07- 78.6- 70.0- 5.9-
2024-04-17 05:30 pmESE 11.1 12.0----30.07- 78.6- 70.2- 5.9-
2024-04-17 05:24 pmESE 9.9 13.0----30.07- 78.6- 71.1- 5.9-
2024-04-17 05:18 pm E 12.0 14.0----30.07- 78.4- 70.3- 5.9-
2024-04-17 05:12 pm E 11.1 13.0----30.07- 79.0- 69.4- 5.9-
2024-04-17 05:06 pmESE 11.1 13.0----30.07- 78.8- 70.0- 5.9-
2024-04-17 05:00 pm E 8.9 12.0----30.07-0.04 78.8- 71.4- 5.9-
2024-04-17 04:54 pm E 8.9 12.0----30.07- 79.2- 70.5- 5.9-
2024-04-17 04:48 pm E 9.9 12.0----30.07- 79.5- 69.3- 5.9-
2024-04-17 04:42 pm E 11.1 12.0----30.07- 80.1- 69.3- 5.9-
2024-04-17 04:36 pm E 8.9 9.9----30.07- 80.2- 69.4- 5.9-
2024-04-17 04:30 pmESE 6.0 9.9----30.07- 80.6- 68.5- 5.9-
2024-04-17 04:24 pm E 9.9 12.0----30.07- 80.6- 67.1- 5.9-
2024-04-17 04:18 pm E 7.0 11.1----30.07- 81.1- 66.9- 5.9-
2024-04-17 04:12 pm E 5.1 7.0----30.08- 81.3- 67.3- 5.9-
2024-04-17 04:06 pm E 1.9 2.9----30.08- 82.2- 66.0- 5.9-
2024-04-17 04:00 pm- 0.0 2.9----30.08-0.06 82.6- 66.0- 5.9-
2024-04-17 03:54 pmESE 1.9 2.9----30.08- 82.0- 66.0- 5.9-
2024-04-17 03:48 pmSSW 1.9 4.1----30.08- 83.5- 65.1- 5.9-
2024-04-17 03:42 pmSSW 2.9 5.1----30.09- 83.1- 63.7- 5.9-
2024-04-17 03:36 pmSSW 4.1 7.0----30.09- 82.2- 67.1- 5.9-
2024-04-17 03:30 pm S 2.9 6.0----30.09- 82.8- 63.7- 5.9-
2024-04-17 03:24 pm SW 6.0 7.0----30.09- 82.0- 65.8- 5.9-
2024-04-17 03:18 pmSSW 2.9 4.1----30.09- 82.9- 64.8- 5.9-
2024-04-17 03:12 pmSSW 1.9 5.1----30.10- 83.1- 64.0- 5.9-
2024-04-17 03:06 pm SW 5.1 7.0----30.10- 82.8- 64.0- 5.9-
2024-04-17 03:00 pm SW 2.9 6.0----30.10-0.06 82.0- 64.2- 5.9-
2024-04-17 02:54 pmSSW 5.1 8.9----30.10- 81.3- 65.5- 5.9-
2024-04-17 02:48 pm SW 5.1 8.0----30.10- 81.7- 65.3- 5.9-
2024-04-17 02:42 pm SW 5.1 8.0----30.11- 82.0- 63.9- 5.9-
2024-04-17 02:36 pm SW 5.1 7.0----30.11- 81.3- 65.1- 5.9-
2024-04-17 02:30 pmSSW 5.1 7.0----30.11- 81.9- 63.9- 5.9-
2024-04-17 02:24 pm SW 5.1 6.0----30.11- 81.3- 64.8- 5.9-
2024-04-17 02:18 pmSSW 4.1 6.0----30.11- 81.3- 64.9- 5.9-
2024-04-17 02:12 pm SW 1.0 2.9----30.11- 81.7- 65.7- 5.9-
2024-04-17 02:06 pm E 1.9 2.9----30.12- 80.8- 67.3- 5.9-
2024-04-17 02:00 pmESE 2.9 8.9----30.12-0.05 79.7- 68.0- 5.9-
2024-04-17 01:54 pmSSW 6.0 7.0----30.12- 80.4- 65.5- 5.9-
2024-04-17 01:48 pmSSW 2.9 5.1----30.12- 80.2- 65.3- 5.9-
2024-04-17 01:42 pm- 0.0 4.1----30.12- 80.8- 65.3- 5.9-
2024-04-17 01:36 pm SE 4.1 6.0----30.13- 79.5- 65.3- 5.9-
2024-04-17 01:30 pm SW 4.1 6.0----30.13- 80.1- 66.4- 5.9-
2024-04-17 01:24 pmSSW 1.9 6.0----30.13- 80.2- 65.8- 5.9-
2024-04-17 01:18 pm SW 5.1 7.0----30.13- 79.3- 65.5- 5.9-
2024-04-17 01:12 pm SW 5.1 7.0----30.14- 79.5- 66.0- 5.9-
2024-04-17 01:06 pmSSW 2.9 6.0----30.14- 79.3- 66.2- 5.9-
2024-04-17 01:00 pmSSW 2.9 7.0----30.14-0.03 78.8- 66.9- 5.9-
2024-04-17 12:54 pm SW 5.1 7.0----30.14- 78.6- 65.8- 5.9-